Regional Weather Roundup
Issued by NWS Northern Indiana

Home | Current Version | Previous Version | Graphics & Text | Print | Product List | Glossary On
Versions: 1 2 3 4 5 6 7 8 9 10 11 12 13 14 15 16 17 18 19 20 21 22 23 24 25 26 27 28 29 30 31 32 33 34 35 36 37 38 39 40 41 42 43 44 45 46 47 48 49 50
000
ASUS43 KIWX 290800
RWRIWX

KIWX WEATHER ROUNDUP
NATIONAL WEATHER SERVICE NORTHERN INDIANA
400 AM EDT FRI MAY 29 2015

NOTE: "FAIR" INDICATES FEW OR NO CLOUDS BELOW 12,000 FEET WITH NO
SIGNIFICANT WEATHER AND/OR OBSTRUCTIONS TO VISIBILITY.

* THESE STATIONS ARE NOT UNDER NWS QUALITY CONTROL. THEY ALSO MAY NOT
  REPORT WEATHER SUCH AS PRECIPITATION OR FOG.

INZ001>027-290900-
NORTHERN INDIANA

CITY           SKY/WX    TMP DP  RH WIND       PRES   REMARKS
SOUTH BEND     CLEAR     66  59  78 E8        30.11S
GOSHEN         CLEAR     64  58  80 SE7       30.12S
ANGOLA*        CLEAR     61  52  72 CALM      30.14F
FORT WAYNE     MOCLDY    62  59  90 NE3       30.14S
PERU/GRISSOM   CLEAR     65  62  89 S6        30.09F

$$
INZ028>050-290900-
CENTRAL INDIANA

CITY           SKY/WX    TMP DP  RH WIND       PRES   REMARKS
LAFAYETTE      CLEAR     65  62  90 E3        30.08F
KOKOMO*        CLEAR     64  57  77 S3        30.11S
MUNCIE*        CLEAR     67  63  87 S3        30.13S
INDIANAPOLIS   PTCLDY    68  62  81 SE6       30.09F

$$
MIZ043>046-050>051-056>058-064>065-071>073-077>080-290900-
SOUTHWEST LOWER MICHIGAN

CITY           SKY/WX    TMP DP  RH WIND       PRES   REMARKS
BATTLE CREEK   PTCLDY    65  54  67 SE7       30.14F
BENTON HARBOR  MOCLDY    66  57  72 SE10      30.09S
COLDWATER*     PTCLDY    62  55  75 SE8       30.14S
HILLSDALE*     PTCLDY    64  57  79 SE7       30.16S
HOLLAND        MOCLDY    65  55  70 SE8       30.11S
GRAND RAPIDS   MOCLDY    64  53  67 SE9       30.12F
KALAMAZOO      MOCLDY    66  54  65 SE5       30.13F
STURGIS*       PTCLDY    63  57  82 SE8       30.12F
THREE RIVERS*  FAIR      64  55  74 CALM      30.13S

$$
OHZ001>008-015>018-024>025-290900-
NORTHWEST OHIO

CITY           SKY/WX    TMP DP  RH WIND       PRES   REMARKS
DEFIANCE       MOCLDY    63  58  83 CALM      30.14S
FINDLAY        CLEAR     66  60  81 SE7       30.15R
TOLEDO EXPRESS PTCLDY    63  56  78 CALM      30.15S
TOLEDO METCALF PTCLDY    62  56  80 SE5       30.16S
LIMA           CLEAR     66  61  84 SE7       30.15S

$$
AND FOR LAKE MICHIGAN COASTAL AND OPEN LAKE BUOY OBSERVATIONS

STATION/POSITION TEMP    WIND        PRES    VSBY  WAVE
                 AIR SEA DIR/SP/G                  HT/PER
                 (F)     (DEG/KT/KT) (MB)    (MI)  (FT/S)
MICHIGAN CITY     71     130/  8/ 10   N/A
BURNS HARBOR      70     200/  7/ 13 1019.0S
SAINT JOSEPH      69     110/  1/  6 1019.0F
SOUTH LAKE BUOY   47 38  130/ 10/ 10 1018.8F         0
4 MI NW BRIDGMAN  65 58  160/  8/ 10   N/A           1
MICHIGAN CITY     63 55  180/  6/  8   N/A           1

$$
&&



USA.gov is the U.S. government's official web portal to all federal, state and local government web resources and services.